Guam Agana, GU

5:35 AM ChST on October 19, 2019 (GMT +1000)
Guam International

Weather History for PGUM - August, 2019

Change the Weather History Date:

Tuesday, August 13, 2019

  Actual Average Record
Temperature  
Mean Temperature 84 °F -  
Max Temperature 89 °F 84 °F 91 °F (2018)
Min Temperature 78 °F 75 °F 75 °F (1996)
Cooling Degree Days 18    
Growing Degree Days 34 (Base 50)    
Moisture  
Dew Point 74 °F    
Average Humidity 73    
Maximum Humidity 90    
Minimum Humidity 57    
Precipitation  
Precipitation 0.00 in - - ()
Sea Level Pressure  
Sea Level Pressure 29.89 in    
Wind  
Wind Speed 5 mph (South)    
Max Wind Speed 12 mph    
Max Gust Speed 20 mph    
Visibility 10 miles    
Events      
Averages and records for this station are not official NWS values.
T = Trace of Precipitation, MM = Missing Value Source: NWS Daily Summary

Daily Weather History Graph

Daily Weather History Graph

Search for Another Location

Airport or City:

Astronomy

Aug. 13, 2019 Rise Set
Actual Time 6:07 AM ChST 6:43 PM ChST
Civil Twilight 5:45 AM ChST 7:05 PM ChST
Nautical Twilight 5:19 AM ChST 7:31 PM ChST
Astronomical Twilight 4:53 AM ChST 7:57 PM ChST
Moon 5:09 PM ChST (8/13) 3:57 AM ChST (8/13)
Length of Visible Light 13h 20m
Length of Day
12h 36m
Waxing Gibbous, 95% of the Moon is Illuminated
Aug 13
Waxing Gibbous
Aug 15
Full
Aug 24
Last Quarter
Aug 30
New
Sep 6
First Quarter

Hourly Weather History & Observations

Time (ChST) Temp. Heat Index Dew Point Humidity Pressure Visibility Wind Dir Wind Speed Gust Speed Precip Events Conditions
12:54 AM 80.1 °F 85.4 °F 75.9 °F 87% 29.87 in 10.0 mi South 4.6 mph - N/A   Clear
1:54 AM 80.1 °F 85.4 °F 75.9 °F 87% 29.86 in 10.0 mi SSW 4.6 mph - N/A   Clear
2:54 AM 80.1 °F 85.4 °F 75.9 °F 87% 29.85 in 10.0 mi South 4.6 mph - N/A   Clear
3:54 AM 79.0 °F - 75.9 °F 90% 29.84 in 10.0 mi South 3.5 mph - N/A   Clear
4:54 AM 79.0 °F - 75.0 °F 88% 29.85 in 10.0 mi SSE 3.5 mph - N/A   Clear
5:54 AM 79.0 °F - 75.0 °F 88% 29.87 in 10.0 mi SSE 3.5 mph - N/A   Clear
6:54 AM 80.1 °F 85.4 °F 75.9 °F 87% 29.88 in 10.0 mi SSE 3.5 mph - N/A   Clear
7:54 AM 82.9 °F 90.8 °F 75.9 °F 79% 29.90 in 10.0 mi South 5.8 mph - N/A   Clear
8:54 AM 84.2 °F 92.3 °F 75.2 °F 74% 29.93 in 10.0 mi South 6.9 mph - N/A   Partly Cloudy
9:54 AM 86.0 °F 95.1 °F 75.0 °F 70% 29.91 in 10.0 mi South 8.1 mph - N/A   Clear
10:54 AM 87.1 °F 96.3 °F 75.0 °F 67% 29.90 in 10.0 mi SSE 10.4 mph - N/A   Clear
11:54 AM 87.1 °F 97.3 °F 75.9 °F 69% 29.89 in 10.0 mi SSE 11.5 mph - N/A   Partly Cloudy
12:54 PM 88.0 °F 96.5 °F 73.9 °F 63% 29.89 in 10.0 mi West 8.1 mph - N/A   Scattered Clouds
1:04 PM 84.0 °F 89.0 °F 71.1 °F 65% 29.92 in 10.0 mi WSW 10.4 mph 19.6 mph N/A   Mostly Cloudy
1:34 PM 86.0 °F 91.5 °F 71.1 °F 61% 29.90 in 10.0 mi WSW 6.9 mph 19.6 mph N/A   Mostly Cloudy
1:54 PM 87.1 °F 95.4 °F 73.9 °F 65% 29.88 in 10.0 mi Variable 5.8 mph - N/A   Partly Cloudy
2:54 PM 88.0 °F 97.5 °F 75.0 °F 65% 29.88 in 10.0 mi South 6.9 mph - N/A   Mostly Cloudy
3:12 PM 87.1 °F 96.3 °F 75.0 °F 67% 29.89 in 10.0 mi SE 5.8 mph - N/A   Mostly Cloudy
3:54 PM 87.1 °F 95.4 °F 73.9 °F 65% 29.87 in 10.0 mi Variable 5.8 mph - N/A   Clear
4:54 PM 84.9 °F 92.1 °F 73.9 °F 69% 29.87 in 10.0 mi SW 6.9 mph - N/A   Partly Cloudy
5:23 PM 84.9 °F 90.7 °F 72.0 °F 65% 29.90 in 10.0 mi Variable 4.6 mph - N/A   Mostly Cloudy
5:32 PM 84.0 °F 90.2 °F 73.0 °F 69% 29.90 in 10.0 mi Calm Calm - N/A   Mostly Cloudy
5:54 PM 84.0 °F 90.2 °F 73.0 °F 69% 29.88 in 10.0 mi Calm Calm - N/A   Partly Cloudy
6:54 PM 82.0 °F 87.4 °F 73.0 °F 74% 29.91 in 10.0 mi Variable 3.5 mph - N/A   Clear
7:54 PM 82.9 °F 87.5 °F 71.1 °F 67% 29.93 in 10.0 mi NE 4.6 mph - N/A   Mostly Cloudy
8:54 PM 82.0 °F 86.7 °F 72.0 °F 71% 29.94 in 10.0 mi East 3.5 mph - N/A   Clear
9:54 PM 82.0 °F 86.7 °F 72.0 °F 71% 29.95 in 10.0 mi ESE 3.5 mph - N/A   Clear
10:54 PM 81.0 °F 85.8 °F 73.0 °F 77% 29.95 in 10.0 mi East 4.6 mph - N/A   Clear
11:54 PM 81.0 °F 86.2 °F 73.9 °F 79% 29.93 in 10.0 mi Calm Calm - N/A   Clear